Back to catalog

CZ-4C DEB

AliveSSO
NORAD 39214·DEBRIS·🇨🇳 China

Launched Jul 19, 2013 from Taiyuan Satellite Launch Center

Loading…

Next Passes (next 24 hours)

TLE

FreshSource: Space-Track

Epoch: Sep 13, 2026, 22:59 UTC

1 39214U 13037G   26256.95820713  .00000465  00000-0  79256-4 0  9997
2 39214  98.1036 264.0858 0012730 145.9746 214.2281 14.73563314704963

Track CZ-4C DEB in real time with AllMySat

Download on the App Store